| time (UTC) | temp F | wind direction | speed MPH | gust MPH | rain 1hr in | rain 24hr in | rain mn in | humidity % | barometer mb |
| 20260831080019 | 62 | 119 | 2.0 | 4.0 | 0.00 | 0.02 | 0.00 | 74 | 1008.3 |
| 20260831075519 | 62 | 132 | 1.0 | 3.0 | 0.00 | 0.02 | 0.00 | 73 | 1008.3 |
| 20260831075020 | 62 | 96 | 1.0 | 3.0 | 0.00 | 0.02 | 0.00 | 73 | 1008.4 |
| 20260831074518 | 62 | 133 | 1.0 | 3.0 | 0.00 | 0.02 | 0.00 | 72 | 1008.5 |
| 20260831074018 | 62 | 136 | 1.0 | 3.0 | 0.00 | 0.02 | 0.00 | 72 | 1008.3 |
| 20260831073516 | 63 | 140 | 0.0 | 2.0 | 0.00 | 0.02 | 0.00 | 71 | 1008.4 |
| 20260831073129 | 63 | 140 | 0.0 | 3.0 | 0.00 | 0.02 | 0.00 | 71 | 1008.4 |
| 20260831072516 | 63 | 140 | 0.0 | 4.0 | 0.00 | 0.02 | 0.00 | 71 | 1008.4 |
| 20260831072014 | 63 | 105 | 0.0 | 7.0 | 0.00 | 0.02 | 0.00 | 71 | 1008.3 |
| 20260831071516 | 64 | 121 | 1.0 | 7.0 | 0.00 | 0.02 | 0.00 | 71 | 1008.3 |
| 20260831071014 | 63 | 145 | 1.0 | 4.0 | 0.00 | 0.02 | 0.00 | 72 | 1008.4 |
| 20260831070513 | 63 | 127 | 1.0 | 4.0 | 0.00 | 0.02 | 0.00 | 72 | 1008.3 |
| 20260831070021 | 63 | 131 | 0.0 | 1.0 | 0.00 | 0.02 | 0.00 | 72 | 1008.4 |
| 20260831065512 | 63 | 122 | 0.0 | 2.0 | 0.00 | 0.02 | 0.00 | 72 | 1008.4 |
| 20260831065011 | 63 | 121 | 0.0 | 3.0 | 0.00 | 0.02 | 0.00 | 72 | 1008.4 |
| 20260831064511 | 63 | 121 | 1.0 | 3.0 | 0.00 | 0.02 | 0.00 | 72 | 1008.3 |
| 20260831064009 | 63 | 112 | 0.0 | 3.0 | 0.00 | 0.02 | 0.00 | 72 | 1008.3 |
| 20260831063511 | 63 | 112 | 1.0 | 3.0 | 0.00 | 0.02 | 0.00 | 73 | 1008.3 |
| 20260831063008 | 63 | 117 | 1.0 | 3.0 | 0.00 | 0.02 | 0.00 | 73 | 1008.4 |
| 20260831062512 | 63 | 94 | 1.0 | 4.0 | 0.00 | 0.02 | 0.00 | 72 | 1008.4 |
| 20260831062008 | 64 | 77 | 1.0 | 4.0 | 0.00 | 0.02 | 0.00 | 71 | 1008.4 |
| 20260831061505 | 64 | 97 | 1.0 | 3.0 | 0.00 | 0.02 | 0.00 | 70 | 1008.3 |
| 20260831061007 | 64 | 78 | 0.0 | 3.0 | 0.00 | 0.02 | 0.00 | 69 | 1008.4 |
| 20260831060504 | 64 | 128 | 1.0 | 3.0 | 0.00 | 0.02 | 0.00 | 69 | 1008.4 |
| 20260831060002 | 64 | 128 | 0.0 | 2.0 | 0.00 | 0.02 | 0.02 | 68 | 1008.3 |
| 20260831055502 | 64 | 128 | 0.0 | 2.0 | 0.00 | 0.02 | 0.02 | 68 | 1008.3 |
| 20260831055002 | 64 | 128 | 0.0 | 1.0 | 0.00 | 0.02 | 0.02 | 68 | 1008.3 |
| 20260831054501 | 65 | 128 | 0.0 | 4.0 | 0.00 | 0.02 | 0.02 | 67 | 1008.3 |
| 20260831054001 | 65 | 116 | 0.0 | 4.0 | 0.00 | 0.02 | 0.02 | 67 | 1008.4 |
| 20260831053501 | 65 | 154 | 0.0 | 2.0 | 0.00 | 0.02 | 0.02 | 67 | 1008.5 |
| 20260831053001 | 65 | 155 | 0.0 | 3.0 | 0.00 | 0.02 | 0.02 | 66 | 1008.5 |
| 20260831052500 | 66 | 150 | 0.0 | 3.0 | 0.00 | 0.02 | 0.02 | 66 | 1008.5 |
| 20260831052000 | 66 | 153 | 0.0 | 4.0 | 0.00 | 0.02 | 0.02 | 66 | 1008.6 |
| 20260831051620 | 66 | 146 | 1.0 | 4.0 | 0.00 | 0.02 | 0.02 | 65 | 1008.6 |
| 20260831051100 | 67 | 113 | 0.0 | 3.0 | 0.00 | 0.02 | 0.02 | 63 | 1008.4 |
| 20260831050600 | 68 | 113 | 0.0 | 3.0 | 0.00 | 0.02 | 0.02 | 61 | 1008.4 |
| 20260831050100 | 68 | 121 | 0.0 | 1.0 | 0.00 | 0.02 | 0.02 | 60 | 1008.4 |
| 20260831045600 | 68 | 116 | 0.0 | 1.0 | 0.00 | 0.02 | 0.02 | 61 | 1008.4 |
| 20260831045100 | 68 | 103 | 0.0 | 1.0 | 0.00 | 0.02 | 0.02 | 62 | 1008.3 |
| 20260831044601 | 68 | 103 | 0.0 | 0.0 | 0.00 | 0.02 | 0.02 | 63 | 1008.2 |
| 20260831044059 | 67 | 103 | 0.0 | 0.0 | 0.00 | 0.02 | 0.02 | 64 | 1008.3 |
| 20260831043558 | 67 | 102 | 0.0 | 1.0 | 0.00 | 0.02 | 0.02 | 63 | 1008.3 |
| 20260831043059 | 67 | 98 | 0.0 | 1.0 | 0.00 | 0.02 | 0.02 | 63 | 1008.2 |
| 20260831042559 | 67 | 98 | 0.0 | 1.0 | 0.00 | 0.02 | 0.02 | 63 | 1008.2 |
| 20260831042059 | 67 | 90 | 0.0 | 2.0 | 0.00 | 0.02 | 0.02 | 62 | 1008.3 |
| 20260831041559 | 67 | 90 | 0.0 | 2.0 | 0.00 | 0.02 | 0.02 | 61 | 1008.3 |
| 20260831041059 | 68 | 90 | 1.0 | 3.0 | 0.00 | 0.02 | 0.02 | 60 | 1008.3 |
| 20260831040559 | 69 | 90 | 0.0 | 3.0 | 0.00 | 0.02 | 0.02 | 57 | 1008.3 |
| 20260831040101 | 70 | 76 | 0.0 | 3.0 | 0.00 | 0.02 | 0.02 | 56 | 1008.3 |
| 20260831035558 | 70 | 215 | 0.0 | 3.0 | 0.00 | 0.02 | 0.02 | 56 | 1008.2 |
| 20260831035058 | 70 | 215 | 1.0 | 4.0 | 0.00 | 0.02 | 0.02 | 56 | 1008.1 |
| 20260831034558 | 70 | 219 | 1.0 | 4.0 | 0.00 | 0.02 | 0.02 | 56 | 1008.1 |
| 20260831034057 | 70 | 212 | 2.0 | 4.0 | 0.00 | 0.02 | 0.02 | 56 | 1008.1 |
| 20260831033557 | 70 | 197 | 2.0 | 4.0 | 0.00 | 0.02 | 0.02 | 56 | 1008.0 |
| 20260831033103 | 70 | 212 | 2.0 | 4.0 | 0.00 | 0.02 | 0.02 | 56 | 1008.0 |
| 20260831032556 | 71 | 186 | 2.0 | 4.0 | 0.00 | 0.02 | 0.02 | 56 | 1007.9 |
| 20260831032056 | 71 | 209 | 2.0 | 4.0 | 0.00 | 0.02 | 0.02 | 56 | 1007.9 |
| 20260831031558 | 71 | 200 | 2.0 | 4.0 | 0.00 | 0.02 | 0.02 | 55 | 1007.9 |
| 20260831031056 | 71 | 207 | 1.0 | 4.0 | 0.00 | 0.02 | 0.02 | 55 | 1007.8 |
| 20260831030555 | 71 | 217 | 2.0 | 4.0 | 0.00 | 0.02 | 0.02 | 55 | 1007.8 |
| 20260831030056 | 72 | 212 | 1.0 | 3.0 | 0.00 | 0.02 | 0.02 | 54 | 1007.8 |
| 20260831025555 | 72 | 204 | 1.0 | 4.0 | 0.00 | 0.02 | 0.02 | 54 | 1007.8 |
| 20260831025055 | 72 | 201 | 2.0 | 4.0 | 0.00 | 0.02 | 0.02 | 54 | 1007.7 |
| 20260831024605 | 72 | 198 | 2.0 | 4.0 | 0.00 | 0.02 | 0.02 | 53 | 1007.6 |
| 20260831024055 | 73 | 209 | 2.0 | 4.0 | 0.00 | 0.02 | 0.02 | 52 | 1007.6 |
| 20260831023554 | 72 | 207 | 2.0 | 3.0 | 0.00 | 0.02 | 0.02 | 51 | 1007.4 |
| 20260831023054 | 72 | 42 | 0.0 | 1.0 | 0.00 | 0.02 | 0.02 | 50 | 1007.4 |
| 20260831022554 | 72 | 42 | 0.0 | 0.0 | 0.00 | 0.02 | 0.02 | 49 | 1007.3 |
| 20260831022054 | 72 | 42 | 0.0 | 2.0 | 0.00 | 0.02 | 0.02 | 48 | 1007.2 |
| 20260831021559 | 72 | 42 | 0.0 | 2.0 | 0.00 | 0.02 | 0.02 | 48 | 1007.2 |
| 20260831021054 | 73 | 42 | 0.0 | 3.0 | 0.00 | 0.02 | 0.02 | 47 | 1007.0 |
| 20260831020556 | 73 | 42 | 0.0 | 4.0 | 0.00 | 0.02 | 0.02 | 47 | 1007.0 |
| 20260831020054 | 74 | 27 | 0.0 | 4.0 | 0.00 | 0.02 | 0.02 | 47 | 1006.9 |
| 20260831015553 | 74 | 27 | 2.0 | 4.0 | 0.00 | 0.02 | 0.02 | 46 | 1006.8 |
| 20260831015053 | 75 | 24 | 1.0 | 4.0 | 0.00 | 0.02 | 0.02 | 45 | 1006.9 |
| 20260831014552 | 75 | 12 | 2.0 | 5.0 | 0.00 | 0.02 | 0.02 | 45 | 1006.9 |
| 20260831014052 | 75 | 5 | 2.0 | 5.0 | 0.00 | 0.02 | 0.02 | 45 | 1006.8 |
| 20260831013552 | 76 | 355 | 2.0 | 5.0 | 0.00 | 0.02 | 0.02 | 45 | 1006.8 |
| 20260831013052 | 76 | 5 | 1.0 | 4.0 | 0.00 | 0.02 | 0.02 | 44 | 1006.9 |
| 20260831012552 | 76 | 13 | 1.0 | 4.0 | 0.00 | 0.02 | 0.02 | 45 | 1006.9 |
| 20260831012054 | 76 | 34 | 2.0 | 6.0 | 0.00 | 0.02 | 0.02 | 43 | 1006.8 |
| 20260831011555 | 77 | 19 | 4.0 | 8.0 | 0.00 | 0.02 | 0.02 | 43 | 1006.9 |
| 20260831011051 | 77 | 339 | 4.0 | 10.0 | 0.00 | 0.02 | 0.02 | 44 | 1007.0 |
| 20260831010550 | 77 | 331 | 6.0 | 10.0 | 0.00 | 0.02 | 0.02 | 43 | 1007.1 |
| 20260831010122 | 77 | 27 | 2.0 | 8.0 | 0.00 | 0.02 | 0.02 | 44 | 1007.2 |
| 20260831005550 | 77 | 19 | 4.0 | 9.0 | 0.00 | 0.02 | 0.02 | 44 | 1007.3 |
| 20260831005050 | 77 | 42 | 5.0 | 9.0 | 0.00 | 0.02 | 0.02 | 44 | 1007.2 |
| 20260831004551 | 78 | 29 | 4.0 | 12.0 | 0.00 | 0.02 | 0.02 | 44 | 1007.3 |
| 20260831004053 | 78 | 36 | 6.0 | 12.0 | 0.00 | 0.02 | 0.02 | 44 | 1007.3 |
| 20260831003553 | 78 | 40 | 4.0 | 9.0 | 0.00 | 0.02 | 0.02 | 44 | 1007.3 |
| 20260831003049 | 79 | 9 | 5.0 | 9.0 | 0.00 | 0.02 | 0.02 | 42 | 1007.2 |
| 20260831002548 | 79 | 321 | 3.0 | 12.0 | 0.00 | 0.02 | 0.02 | 44 | 1007.2 |
| 20260831002052 | 79 | 323 | 7.0 | 12.0 | 0.00 | 0.02 | 0.02 | 43 | 1007.2 |
| 20260831001600 | 79 | 333 | 7.0 | 10.0 | 0.00 | 0.02 | 0.02 | 43 | 1007.2 |
| 20260831001048 | 80 | 329 | 5.0 | 13.0 | 0.00 | 0.02 | 0.02 | 43 | 1007.3 |
| 20260831000549 | 79 | 313 | 7.0 | 13.0 | 0.00 | 0.02 | 0.02 | 43 | 1007.2 |
| 20260831000048 | 80 | 301 | 7.0 | 11.0 | 0.00 | 0.02 | 0.02 | 43 | 1007.1 |
| 20260830235548 | 79 | 285 | 3.0 | 11.0 | 0.00 | 0.03 | 0.02 | 42 | 1007.1 |
| 20260830235047 | 79 | 300 | 3.0 | 12.0 | 0.00 | 0.03 | 0.02 | 44 | 1007.2 |
| 20260830234547 | 79 | 15 | 8.0 | 12.0 | 0.00 | 0.03 | 0.02 | 43 | 1007.2 |
| 20260830234046 | 80 | 13 | 5.0 | 9.0 | 0.00 | 0.03 | 0.02 | 43 | 1007.3 |
| 20260830233546 | 80 | 341 | 3.0 | 12.0 | 0.00 | 0.03 | 0.02 | 46 | 1007.3 |
| 20260830233046 | 80 | 33 | 5.0 | 12.0 | 0.00 | 0.03 | 0.02 | 43 | 1007.4 |
| 20260830232547 | 80 | 37 | 6.0 | 10.0 | 0.00 | 0.03 | 0.02 | 44 | 1007.4 |
| 20260830232046 | 80 | 5 | 3.0 | 9.0 | 0.00 | 0.03 | 0.02 | 45 | 1007.3 |
| 20260830231546 | 79 | 312 | 2.0 | 13.0 | 0.00 | 0.03 | 0.02 | 45 | 1007.3 |
| 20260830231048 | 80 | 306 | 8.0 | 13.0 | 0.00 | 0.03 | 0.02 | 45 | 1007.3 |
| 20260830230546 | 80 | 12 | 6.0 | 13.0 | 0.00 | 0.03 | 0.02 | 44 | 1007.3 |
| 20260830230051 | 80 | 307 | 7.0 | 13.0 | 0.00 | 0.03 | 0.02 | 44 | 1007.4 |
| 20260830225544 | 80 | 339 | 7.0 | 12.0 | 0.00 | 0.03 | 0.02 | 44 | 1007.5 |
| 20260830225044 | 80 | 320 | 9.0 | 15.0 | 0.00 | 0.03 | 0.02 | 45 | 1007.4 |
| 20260830224551 | 80 | 323 | 9.0 | 15.0 | 0.00 | 0.03 | 0.02 | 45 | 1007.5 |
| 20260830224046 | 79 | 309 | 6.0 | 14.0 | 0.00 | 0.03 | 0.02 | 46 | 1007.4 |
| 20260830223544 | 80 | 335 | 6.0 | 14.0 | 0.00 | 0.03 | 0.02 | 46 | 1007.5 |
| 20260830223044 | 79 | 301 | 6.0 | 13.0 | 0.00 | 0.03 | 0.02 | 47 | 1007.6 |
| 20260830222544 | 79 | 248 | 9.0 | 13.0 | 0.00 | 0.03 | 0.02 | 45 | 1007.7 |
| 20260830222048 | 80 | 309 | 8.0 | 12.0 | 0.00 | 0.03 | 0.02 | 46 | 1007.7 |
| 20260830221544 | 80 | 302 | 6.0 | 11.0 | 0.00 | 0.03 | 0.02 | 46 | 1007.8 |
| 20260830221043 | 79 | 329 | 6.0 | 13.0 | 0.00 | 0.03 | 0.02 | 48 | 1008.0 |
| 20260830220542 | 78 | 263 | 10.0 | 13.0 | 0.00 | 0.03 | 0.02 | 47 | 1008.1 |
| 20260830220045 | 77 | 284 | 8.0 | 13.0 | 0.00 | 0.03 | 0.02 | 47 | 1008.0 |
| 20260830215542 | 77 | 289 | 5.0 | 11.0 | 0.00 | 0.03 | 0.02 | 47 | 1008.0 |
| 20260830215041 | 78 | 271 | 5.0 | 12.0 | 0.00 | 0.03 | 0.02 | 46 | 1008.1 |
| 20260830214546 | 78 | 300 | 4.0 | 12.0 | 0.00 | 0.03 | 0.02 | 46 | 1008.2 |
| 20260830214041 | 78 | 259 | 6.0 | 12.0 | 0.00 | 0.03 | 0.02 | 43 | 1008.2 |
| 20260830213541 | 79 | 298 | 6.0 | 12.0 | 0.00 | 0.03 | 0.02 | 42 | 1008.2 |
| 20260830213041 | 79 | 234 | 7.0 | 14.0 | 0.00 | 0.03 | 0.02 | 43 | 1008.1 |
| 20260830212541 | 80 | 296 | 7.0 | 15.0 | 0.00 | 0.03 | 0.02 | 43 | 1008.2 |
| 20260830212040 | 79 | 333 | 10.0 | 15.0 | 0.00 | 0.03 | 0.02 | 44 | 1008.2 |
| 20260830211540 | 80 | 309 | 6.0 | 14.0 | 0.00 | 0.03 | 0.02 | 43 | 1008.3 |
| 20260830211040 | 81 | 303 | 6.0 | 11.0 | 0.00 | 0.03 | 0.02 | 44 | 1008.3 |
| 20260830210540 | 79 | 240 | 5.0 | 10.0 | 0.00 | 0.03 | 0.02 | 42 | 1008.4 |
| 20260830210039 | 79 | 318 | 5.0 | 12.0 | 0.00 | 0.03 | 0.02 | 48 | 1008.5 |
| 20260830205539 | 78 | 331 | 4.0 | 15.0 | 0.00 | 0.05 | 0.02 | 45 | 1008.6 |
| 20260830205038 | 78 | 319 | 10.0 | 15.0 | 0.00 | 0.05 | 0.02 | 43 | 1008.5 |
| 20260830204539 | 80 | 311 | 7.0 | 14.0 | 0.00 | 0.05 | 0.02 | 43 | 1008.5 |
| 20260830204039 | 81 | 25 | 7.0 | 14.0 | 0.00 | 0.05 | 0.02 | 44 | 1008.6 |
| 20260830203537 | 81 | 30 | 4.0 | 13.0 | 0.00 | 0.05 | 0.02 | 42 | 1008.6 |
| 20260830203036 | 80 | 5 | 6.0 | 13.0 | 0.00 | 0.05 | 0.02 | 45 | 1008.7 |
| 20260830202537 | 79 | 355 | 4.0 | 8.0 | 0.00 | 0.05 | 0.02 | 47 | 1008.8 |
| 20260830202035 | 80 | 49 | 3.0 | 8.0 | 0.00 | 0.05 | 0.02 | 42 | 1008.7 |
| 20260830201533 | 80 | 26 | 4.0 | 10.0 | 0.00 | 0.05 | 0.02 | 46 | 1008.8 |
| 20260830201033 | 79 | 30 | 4.0 | 12.0 | 0.00 | 0.05 | 0.02 | 46 | 1008.7 |
| 20260830200533 | 79 | 344 | 7.0 | 12.0 | 0.00 | 0.05 | 0.02 | 46 | 1008.8 |
| 20260830200033 | 79 | 28 | 3.0 | 6.0 | 0.00 | 0.05 | 0.02 | 49 | 1009.0 |
| 20260830195533 | 78 | 74 | 1.0 | 6.0 | 0.00 | 0.05 | 0.02 | 50 | 1008.9 |
| 20260830195033 | 78 | 315 | 4.0 | 6.0 | 0.00 | 0.05 | 0.02 | 45 | 1009.1 |
| 20260830194534 | 76 | 328 | 2.0 | 8.0 | 0.00 | 0.05 | 0.02 | 50 | 1009.2 |
| 20260830194032 | 75 | 310 | 3.0 | 9.0 | 0.00 | 0.05 | 0.02 | 50 | 1009.3 |
| 20260830193531 | 75 | 328 | 4.0 | 12.0 | 0.00 | 0.05 | 0.02 | 52 | 1009.2 |
| 20260830193031 | 75 | 298 | 8.0 | 12.0 | 0.00 | 0.05 | 0.02 | 51 | 1009.3 |
| 20260830192531 | 75 | 349 | 7.0 | 11.0 | 0.00 | 0.05 | 0.02 | 49 | 1009.1 |
| 20260830192031 | 76 | 304 | 5.0 | 10.0 | 0.00 | 0.05 | 0.02 | 47 | 1009.1 |
| 20260830191531 | 76 | 17 | 4.0 | 10.0 | 0.00 | 0.05 | 0.02 | 48 | 1009.1 |
| 20260830191030 | 77 | 329 | 4.0 | 10.0 | 0.00 | 0.05 | 0.02 | 46 | 1009.2 |
| 20260830190530 | 78 | 59 | 4.0 | 9.0 | 0.00 | 0.05 | 0.02 | 46 | 1009.2 |
| 20260830190032 | 79 | 17 | 3.0 | 7.0 | 0.00 | 0.05 | 0.02 | 48 | 1009.3 |
| 20260830185530 | 79 | 182 | 3.0 | 9.0 | 0.00 | 0.05 | 0.02 | 49 | 1009.3 |
| 20260830185031 | 79 | 331 | 5.0 | 9.0 | 0.00 | 0.05 | 0.02 | 50 | 1009.4 |
| 20260830184527 | 79 | 175 | 1.0 | 7.0 | 0.00 | 0.05 | 0.02 | 49 | 1009.3 |
| 20260830184031 | 78 | 113 | 3.0 | 7.0 | 0.00 | 0.05 | 0.02 | 50 | 1009.3 |
| 20260830183531 | 78 | 163 | 1.0 | 9.0 | 0.00 | 0.05 | 0.02 | 51 | 1009.4 |
| 20260830183025 | 78 | 190 | 2.0 | 9.0 | 0.00 | 0.05 | 0.02 | 50 | 1009.3 |
| 20260830182524 | 78 | 82 | 4.0 | 9.0 | 0.00 | 0.05 | 0.02 | 52 | 1009.3 |
| 20260830182023 | 77 | 351 | 0.0 | 6.0 | 0.00 | 0.05 | 0.02 | 54 | 1009.4 |
| 20260830181534 | 78 | 300 | 3.0 | 6.0 | 0.00 | 0.05 | 0.02 | 54 | 1009.5 |
| 20260830181021 | 77 | 351 | 2.0 | 9.0 | 0.00 | 0.05 | 0.02 | 56 | 1009.5 |
| 20260830180520 | 77 | 24 | 4.0 | 9.0 | 0.00 | 0.05 | 0.02 | 55 | 1009.4 |
| 20260830180032 | 77 | 9 | 4.0 | 8.0 | 0.00 | 0.05 | 0.02 | 54 | 1009.6 |
| 20260830175519 | 77 | 323 | 4.0 | 8.0 | 0.00 | 0.13 | 0.02 | 54 | 1009.5 |
| 20260830175016 | 77 | 36 | 3.0 | 6.0 | 0.00 | 0.13 | 0.02 | 52 | 1009.6 |
| 20260830174524 | 77 | 46 | 3.0 | 5.0 | 0.00 | 0.13 | 0.02 | 57 | 1009.6 |
| 20260830174017 | 76 | 77 | 1.0 | 9.0 | 0.00 | 0.13 | 0.02 | 56 | 1009.6 |
| 20260830173514 | 76 | 308 | 3.0 | 9.0 | 0.00 | 0.13 | 0.02 | 57 | 1009.6 |
| 20260830173016 | 76 | 315 | 1.0 | 7.0 | 0.00 | 0.13 | 0.02 | 57 | 1009.6 |
| 20260830172511 | 76 | 196 | 1.0 | 3.0 | 0.00 | 0.13 | 0.02 | 54 | 1009.7 |
| 20260830172012 | 76 | 164 | 0.0 | 5.0 | 0.00 | 0.13 | 0.02 | 54 | 1009.8 |
| 20260830171513 | 76 | 164 | 1.0 | 7.0 | 0.00 | 0.13 | 0.02 | 53 | 1009.7 |
| 20260830171011 | 75 | 101 | 2.0 | 5.0 | 0.00 | 0.13 | 0.02 | 56 | 1009.7 |
| 20260830170514 | 75 | 138 | 1.0 | 3.0 | 0.00 | 0.13 | 0.02 | 59 | 1009.7 |
| 20260830170008 | 76 | 138 | 0.0 | 4.0 | 0.00 | 0.13 | 0.02 | 57 | 1009.8 |
| 20260830165510 | 75 | 144 | 1.0 | 6.0 | 0.00 | 0.18 | 0.02 | 56 | 1009.7 |
| 20260830165004 | 74 | 148 | 3.0 | 6.0 | 0.00 | 0.18 | 0.02 | 55 | 1009.7 |
| 20260830164503 | 74 | 177 | 2.0 | 9.0 | 0.00 | 0.18 | 0.02 | 55 | 1009.6 |
| 20260830164005 | 74 | 200 | 4.0 | 12.0 | 0.00 | 0.18 | 0.02 | 55 | 1009.3 |
| 20260830163501 | 73 | 128 | 4.0 | 12.0 | 0.00 | 0.18 | 0.02 | 55 | 1009.1 |
| 20260830163105 | 73 | 180 | 4.0 | 12.0 | 0.00 | 0.18 | 0.02 | 56 | 1009.1 |
| 20260830162559 | 73 | 149 | 6.0 | 15.0 | 0.00 | 0.18 | 0.02 | 56 | 1009.2 |
| 20260830162057 | 72 | 179 | 5.0 | 15.0 | 0.00 | 0.18 | 0.02 | 58 | 1009.1 |
| 20260830161625 | 72 | 187 | 7.0 | 14.0 | 0.00 | 0.18 | 0.02 | 58 | 1009.1 |
| 20260830161056 | 72 | 128 | 5.0 | 11.0 | 0.00 | 0.18 | 0.02 | 59 | 1009.1 |
| 20260830160554 | 72 | 182 | 4.0 | 11.0 | 0.00 | 0.18 | 0.02 | 60 | 1009.0 |
| 20260830160053 | 71 | 133 | 5.0 | 15.0 | 0.00 | 0.18 | 0.02 | 60 | 1009.1 |
| 20260830155552 | 71 | 122 | 6.0 | 15.0 | 0.00 | 0.18 | 0.02 | 62 | 1009.0 |
| 20260830155051 | 71 | 140 | 3.0 | 12.0 | 0.00 | 0.18 | 0.02 | 63 | 1009.1 |
| 20260830154550 | 70 | 132 | 5.0 | 12.0 | 0.00 | 0.18 | 0.02 | 64 | 1009.0 |
| 20260830154050 | 70 | 219 | 3.0 | 8.0 | 0.00 | 0.18 | 0.02 | 67 | 1009.0 |
| 20260830153549 | 69 | 177 | 5.0 | 12.0 | 0.00 | 0.18 | 0.02 | 66 | 1009.1 |
| 20260830153048 | 69 | 207 | 5.0 | 12.0 | 0.00 | 0.18 | 0.02 | 67 | 1009.0 |
| 20260830152546 | 68 | 98 | 5.0 | 11.0 | 0.00 | 0.18 | 0.02 | 68 | 1009.0 |
| 20260830152046 | 68 | 136 | 4.0 | 14.0 | 0.00 | 0.18 | 0.02 | 69 | 1009.0 |
| 20260830151544 | 68 | 146 | 4.0 | 14.0 | 0.00 | 0.18 | 0.02 | 69 | 1009.1 |
| 20260830151046 | 68 | 90 | 2.0 | 8.0 | 0.00 | 0.18 | 0.02 | 69 | 1009.0 |
| 20260830150545 | 68 | 138 | 0.0 | 7.0 | 0.00 | 0.18 | 0.02 | 70 | 1009.1 |
| 20260830150046 | 68 | 144 | 3.0 | 8.0 | 0.00 | 0.18 | 0.02 | 72 | 1009.1 |
| 20260830145542 | 67 | 163 | 3.0 | 8.0 | 0.00 | 0.26 | 0.02 | 75 | 1009.1 |
| 20260830145042 | 66 | 115 | 3.0 | 8.0 | 0.00 | 0.26 | 0.02 | 79 | 1009.0 |
| 20260830144540 | 65 | 115 | 0.0 | 4.0 | 0.00 | 0.26 | 0.02 | 81 | 1009.1 |
| 20260830144043 | 64 | 125 | 0.0 | 4.0 | 0.00 | 0.26 | 0.02 | 81 | 1009.1 |
| 20260830143540 | 64 | 115 | 0.0 | 3.0 | 0.00 | 0.26 | 0.02 | 81 | 1009.1 |
| 20260830143036 | 63 | 119 | 0.0 | 3.0 | 0.00 | 0.26 | 0.02 | 81 | 1009.3 |
| 20260830142536 | 63 | 105 | 0.0 | 3.0 | 0.00 | 0.26 | 0.02 | 82 | 1009.3 |
| 20260830142035 | 62 | 104 | 0.0 | 3.0 | 0.00 | 0.26 | 0.02 | 82 | 1008.9 |
| 20260830141534 | 62 | 157 | 1.0 | 3.0 | 0.00 | 0.26 | 0.02 | 83 | 1009.0 |
| 20260830141033 | 61 | 173 | 0.0 | 3.0 | 0.00 | 0.26 | 0.02 | 83 | 1009.3 |
| 20260830140536 | 61 | 173 | 0.0 | 3.0 | 0.00 | 0.26 | 0.02 | 83 | 1009.1 |
| 20260830140033 | 61 | 163 | 0.0 | 3.0 | 0.00 | 0.26 | 0.02 | 83 | 1009.0 |
| 20260830135533 | 61 | 166 | 0.0 | 0.0 | 0.00 | 0.27 | 0.02 | 83 | 1009.1 |
| 20260830135033 | 62 | 166 | 0.0 | 2.0 | 0.00 | 0.27 | 0.02 | 83 | 1009.2 |
| 20260830134540 | 62 | 166 | 0.0 | 3.0 | 0.00 | 0.27 | 0.02 | 83 | 1009.2 |
| 20260830134030 | 61 | 166 | 0.0 | 3.0 | 0.00 | 0.27 | 0.02 | 83 | 1009.0 |
| 20260830133529 | 61 | 143 | 0.0 | 3.0 | 0.00 | 0.27 | 0.02 | 83 | 1009.0 |
| 20260830133035 | 61 | 103 | 0.0 | 6.0 | 0.00 | 0.27 | 0.02 | 83 | 1008.7 |
| 20260830132527 | 62 | 101 | 1.0 | 7.0 | 0.00 | 0.27 | 0.02 | 83 | 1008.7 |
| 20260830132029 | 61 | 167 | 2.0 | 7.0 | 0.00 | 0.27 | 0.02 | 83 | 1008.6 |
| 20260830131527 | 61 | 152 | 1.0 | 4.0 | 0.00 | 0.27 | 0.02 | 83 | 1008.7 |
| 20260830131028 | 61 | 175 | 1.0 | 5.0 | 0.00 | 0.27 | 0.02 | 83 | 1008.7 |
| 20260830130527 | 61 | 145 | 3.0 | 6.0 | 0.00 | 0.27 | 0.02 | 83 | 1008.6 |
| 20260830130026 | 61 | 160 | 1.0 | 8.0 | 0.00 | 0.27 | 0.02 | 83 | 1008.6 |
| 20260830125525 | 62 | 147 | 1.0 | 8.0 | 0.00 | 0.27 | 0.02 | 83 | 1008.5 |
| 20260830125024 | 62 | 153 | 2.0 | 5.0 | 0.00 | 0.27 | 0.02 | 83 | 1008.6 |
| 20260830124526 | 62 | 147 | 2.0 | 9.0 | 0.00 | 0.27 | 0.02 | 83 | 1008.8 |
| 20260830124023 | 62 | 155 | 2.0 | 9.0 | 0.00 | 0.27 | 0.02 | 83 | 1008.9 |
| 20260830123522 | 62 | 171 | 1.0 | 8.0 | 0.01 | 0.27 | 0.02 | 83 | 1008.6 |
| 20260830123022 | 62 | 146 | 2.0 | 8.0 | 0.01 | 0.27 | 0.02 | 83 | 1008.6 |
| 20260830122521 | 62 | 143 | 3.0 | 17.0 | 0.01 | 0.27 | 0.02 | 83 | 1008.5 |
| 20260830122024 | 62 | 167 | 7.0 | 17.0 | 0.01 | 0.27 | 0.02 | 83 | 1008.3 |
| 20260830121520 | 62 | 142 | 1.0 | 4.0 | 0.01 | 0.27 | 0.02 | 83 | 1008.3 |
| 20260830121021 | 62 | 159 | 1.0 | 4.0 | 0.01 | 0.27 | 0.02 | 83 | 1008.3 |
| 20260830120521 | 62 | 148 | 1.0 | 8.0 | 0.01 | 0.27 | 0.02 | 83 | 1008.2 |
| 20260830120019 | 62 | 117 | 4.0 | 8.0 | 0.01 | 0.27 | 0.02 | 83 | 1008.0 |
| 20260830115519 | 62 | 160 | 4.0 | 9.0 | 0.01 | 0.28 | 0.02 | 83 | 1008.2 |
| 20260830115022 | 62 | 181 | 5.0 | 9.0 | 0.01 | 0.28 | 0.02 | 84 | 1008.2 |
| 20260830114519 | 62 | 153 | 3.0 | 7.0 | 0.01 | 0.28 | 0.02 | 84 | 1008.2 |
| 20260830114018 | 62 | 135 | 2.0 | 7.0 | 0.01 | 0.28 | 0.02 | 84 | 1008.1 |
| 20260830113516 | 62 | 98 | 3.0 | 7.0 | 0.00 | 0.27 | 0.01 | 84 | 1007.9 |
| 20260830113022 | 63 | 140 | 3.0 | 7.0 | 0.00 | 0.27 | 0.01 | 84 | 1008.4 |
| 20260830112516 | 63 | 147 | 1.0 | 4.0 | 0.00 | 0.27 | 0.01 | 85 | 1008.7 |
| 20260830112016 | 63 | 21 | 0.0 | 2.0 | 0.00 | 0.27 | 0.01 | 85 | 1008.5 |
| 20260830111516 | 63 | 21 | 0.0 | 6.0 | 0.00 | 0.27 | 0.01 | 84 | 1008.2 |
| 20260830111015 | 63 | 17 | 3.0 | 8.0 | 0.00 | 0.27 | 0.01 | 84 | 1008.3 |
| 20260830110515 | 63 | 316 | 4.0 | 8.0 | 0.00 | 0.27 | 0.01 | 84 | 1008.3 |
| 20260830110016 | 63 | 349 | 1.0 | 4.0 | 0.00 | 0.27 | 0.01 | 84 | 1007.9 |
| 20260830105514 | 63 | 78 | 1.0 | 8.0 | 0.00 | 0.28 | 0.01 | 84 | 1007.6 |
| 20260830105015 | 63 | 121 | 3.0 | 8.0 | 0.00 | 0.28 | 0.01 | 83 | 1007.6 |
| 20260830104514 | 63 | 155 | 2.0 | 7.0 | 0.00 | 0.28 | 0.01 | 83 | 1007.7 |
| 20260830104013 | 63 | 142 | 3.0 | 7.0 | 0.00 | 0.28 | 0.01 | 83 | 1008.0 |
| 20260830103513 | 63 | 128 | 2.0 | 4.0 | 0.00 | 0.28 | 0.01 | 82 | 1008.1 |
| 20260830103015 | 63 | 155 | 1.0 | 6.0 | 0.00 | 0.28 | 0.01 | 82 | 1007.9 |
| 20260830102512 | 63 | 155 | 2.0 | 6.0 | 0.00 | 0.28 | 0.01 | 81 | 1007.8 |
| 20260830102012 | 63 | 138 | 1.0 | 4.0 | 0.00 | 0.28 | 0.01 | 81 | 1007.9 |
| 20260830101512 | 63 | 170 | 0.0 | 3.0 | 0.00 | 0.28 | 0.01 | 81 | 1008.1 |
| 20260830101011 | 63 | 150 | 0.0 | 3.0 | 0.00 | 0.28 | 0.01 | 80 | 1008.0 |
| 20260830100512 | 63 | 150 | 0.0 | 3.0 | 0.00 | 0.28 | 0.01 | 80 | 1007.9 |
| 20260830100011 | 63 | 150 | 0.0 | 3.0 | 0.00 | 0.28 | 0.01 | 79 | 1007.7 |
| 20260830095510 | 63 | 124 | 0.0 | 3.0 | 0.00 | 0.28 | 0.01 | 77 | 1007.5 |
| 20260830095009 | 63 | 108 | 0.0 | 3.0 | 0.00 | 0.28 | 0.01 | 76 | 1007.6 |
| 20260830094507 | 63 | 103 | 1.0 | 3.0 | 0.00 | 0.28 | 0.01 | 75 | 1007.8 |
| 20260830094006 | 64 | 129 | 0.0 | 6.0 | 0.01 | 0.28 | 0.01 | 74 | 1007.9 |
| 20260830093506 | 64 | 130 | 2.0 | 7.0 | 0.01 | 0.28 | 0.01 | 74 | 1008.0 |
| 20260830093005 | 64 | 78 | 2.0 | 6.0 | 0.01 | 0.28 | 0.01 | 73 | 1008.1 |
| 20260830092503 | 65 | 132 | 1.0 | 6.0 | 0.01 | 0.28 | 0.01 | 72 | 1008.1 |
| 20260830092003 | 65 | 160 | 0.0 | 7.0 | 0.01 | 0.28 | 0.01 | 71 | 1008.0 |
| 20260830091503 | 66 | 223 | 1.0 | 7.0 | 0.01 | 0.28 | 0.01 | 70 | 1008.0 |
| 20260830091003 | 66 | 246 | 1.0 | 11.0 | 0.01 | 0.28 | 0.01 | 70 | 1008.1 |
| 20260830090502 | 66 | 196 | 5.0 | 18.0 | 0.01 | 0.28 | 0.01 | 70 | 1008.2 |
| 20260830090002 | 66 | 269 | 8.0 | 18.0 | 0.01 | 0.28 | 0.01 | 71 | 1008.2 |
| 20260830085501 | 65 | 209 | 11.0 | 18.0 | 0.01 | 0.28 | 0.01 | 72 | 1008.4 |
| 20260830085100 | 65 | 272 | 8.0 | 16.0 | 0.01 | 0.28 | 0.01 | 73 | 1008.1 |
| 20260830084558 | 66 | 268 | 10.0 | 16.0 | 0.01 | 0.28 | 0.01 | 72 | 1008.6 |
| 20260830084100 | 66 | 171 | 7.0 | 12.0 | 0.00 | 0.28 | 0.00 | 72 | 1007.9 |
| 20260830083601 | 66 | 128 | 6.0 | 12.0 | 0.00 | 0.28 | 0.00 | 72 | 1008.0 |
| 20260830083055 | 66 | 174 | 5.0 | 11.0 | 0.00 | 0.28 | 0.00 | 72 | 1007.8 |
| 20260830082554 | 66 | 171 | 4.0 | 11.0 | 0.00 | 0.28 | 0.00 | 72 | 1008.1 |
| 20260830082054 | 66 | 171 | 3.0 | 9.0 | 0.00 | 0.28 | 0.00 | 72 | 1007.6 |
| 20260830081554 | 66 | 149 | 1.0 | 9.0 | 0.00 | 0.28 | 0.00 | 72 | 1007.7 |
| 20260830081054 | 66 | 97 | 5.0 | 10.0 | 0.00 | 0.28 | 0.00 | 71 | 1007.8 |
| 20260830080553 | 67 | 187 | 3.0 | 10.0 | 0.00 | 0.28 | 0.00 | 71 | 1007.8 |